SL-19 DEB, 23495

Orbit data source: Space-Track

SL-19 DEB, 23495 is space debris in LEO originally from a launch on Mon, 26 Dec 1994 UTC launched from the Tyuratam Missile And Space Complex (TTMTR). Debris objects in space refer to the collection of defunct objects orbiting the Earth. Examples of debris include non-operational satellites, rocket bodies, and fragments generated from explosions, collisions, or faulty payload assembly.

Loading next visibility...
Identifier
23495, 1994-085T
Orbit
LEO
Country
Flag of CISCIS
Related business
Manufacturer
Unknown
Mission
Spacecraft
Bus & Motor
Unknown
Mass
Unknown
Launch date (UTC)
1994-12-26 (31 years ago)
Launch vehicle
Unknown
Launch site
Tyuratam Missile And Space Complex (TTMTR)
Object type
Payload
Rocket body
Debris
Shape & HBR
Unknown shape, 0.2 m
Radar Cross Section
Small (<0.1 m²)

Expand to show TLE details & history
Last TLE update: 1 day ago

TLE from 1 day ago
0 SL-19 DEB
1 23495U 94085T   25309.29564081 -.00000027  00000-0  40698-3 0  9993
2 23495  65.0241 313.8177 0170358  97.0494 284.8818 11.31081617274472
Epoch: 2025-11-05T07:05Z
TLE epoch observation values (Epoch: 2025-11-05T07:05:43.365Z)
Latitude
18.10115°
Longitude
171.33333°
Altitude
1,971.769 km
Speed
6.926 km/s
True Right ascension
21h 30m 08s
True Declination
18° 00' 52"
Sunlit
Object was in daylight at epoch
Visualization orbit readout
Latitude
Unknown
Longitude
Unknown
Altitude
Unknown
Speed
Unknown
Apparent Right ascension
Unknown
Apparent Declination
Unknown
Sunlit
N/A
Visualization observer readout
Local Sidereal Time
05:41:37
Azimuth
Unknown
Elevation
Unknown
Doppler factor
Unknown
Orbital elements
Apogee altitude
2,146.562 km
Perigee altitude
1,860.977 km
Semi-major axis
8,381.907 km
Eccentricity
0.01704
Inclination
65.0241°
RAAN
313.8177°
Arg. of periapsis
97.0494°
True anomaly
282.98509°
Mean anomaly
284.8818°
Eccentric anomaly
283.93444°
Mean motion
2.82832 °/min
Orbital period
127.28 mins
BSTAR
0.00040698
Loading maneuver chart data...
Computing Atmospheric mass density...
Loading historical data...
Loading historical data...
Loading historical data...
Loading historical data...
Loading historical data...
Loading historical data...
Loading historical data...

Documentation

Showing up to 5 results
|